Powrót do katalogu

ATLAS 5 CENTAUR DEB

LostHEO
NORAD 52970·DEBRIS·🇺🇸 United States

Wystrzelony Oct 17, 2018 z Cape Canaveral Space Force Station

Loading…

Następne Przeloty (najbliższe 24 godziny)

TLE

NieaktualneSource: Space-Track

Epoka: Mar 8, 2024, 18:54 UTC

1 52970U 18079GU  24068.78750252  .00000032  00000-0  00000+0 0  9998
2 52970  12.3763  64.9172 5244536 283.9202  25.1172  2.00746876 14509

Śledź ATLAS 5 CENTAUR DEB w czasie rzeczywistym z AllMySat

Download on the App Store